FW9007 Weather Reports


time (UTC)temp
C
wind
direction
speed
KPH
gust
KPH
rain 1hr
cm
rain 24hr
cm
rain mn
cm
humidity
%
barometer
mb
20260509090409 -17 211 0.0 1.6 0.30 1.45 1.45 1006.9
20260509085907 -17 196 3.2 3.2 0.30 1.42 1.42 1007.2
20260509085404 -17 193 4.8 4.8 0.43 1.40 1.40 1007.3
20260509084900 -17 214 4.8 4.8 0.30 1.37 1.37 1007.3
20260509084357 -17 184 0.0 0.0 0.30 1.35 1.35 1007.1
20260509083855 -17 178 1.6 3.2 0.30 1.32 1.32 1007.1
20260509083351 -17 198 1.6 1.6 0.13 1.30 1.30 1007.1
20260509082848 -17 198 1.6 1.6 0.18 1.27 1.27 1007.2
20260509082345 -17 196 1.6 1.6 0.18 1.27 1.27 1007.0
20260509081842 -17 202 4.8 4.8 0.00 1.24 1.24 1006.9
20260509081339 -17 207 3.2 3.2 0.18 1.24 1.24 1007.1
20260509080837 -17 198 3.2 3.2 0.18 1.24 1.24 1007.1
20260509080335 -17 200 3.2 3.2 0.18 1.24 1.24 1006.8
20260509075833 -17 200 4.8 4.8 0.13 1.22 1.22 1007.0
20260509075330 -17 182 4.8 4.8 0.13 1.22 1.22 1007.0
20260509074827 -17 204 3.2 3.2 0.18 1.19 1.19 1007.2
20260509074324 -17 174 4.8 4.8 0.18 1.19 1.19 1006.8
20260509073821 -17 219 4.8 8.0 0.00 1.17 1.17 1007.2
20260509073317 -17 181 3.2 3.2 0.00 1.17 1.17 1007.1
20260509072814 -17 221 4.8 4.8 0.00 1.17 1.17 1007.1
20260509072310 -17 174 4.8 9.7 0.13 1.17 1.17 1007.3
20260509071807 -17 215 3.2 4.8 0.13 1.17 1.17 1007.5
20260509071304 -17 233 4.8 8.0 0.00 1.14 1.14 1007.3
20260509070801 -17 204 3.2 3.2 0.00 1.14 1.14 1007.7
20260509070258 -17 182 0.0 1.6 0.00 1.14 1.14 1007.4
20260509065754 -17 197 0.0 0.0 0.00 1.14 1.14 1007.3
20260509065250 -17 177 0.0 0.0 0.00 1.14 1.14 1007.8
20260509064747 -17 188 1.6 3.2 0.00 1.14 1.14 1007.7
20260509064244 -17 197 0.0 1.6 0.00 1.14 1.14 1007.9
20260509063742 -17 189 3.2 3.2 0.00 1.14 1.14 1007.8
20260509063238 -17 173 4.8 4.8 0.00 1.14 1.14 1008.0
20260509062735 -17 188 1.6 1.6 0.00 1.14 1.14 1008.1
20260509062232 -17 198 0.0 1.6 0.00 1.14 1.14 1008.0
20260509061729 -17 180 0.0 0.0 0.18 1.14 1.14 1007.9
20260509061227 -17 182 0.0 0.0 0.48 1.14 1.14 1008.0
20260509060724 -17 183 0.0 0.0 0.61 1.12 1.12 1008.0
20260509060220 -17 183 1.6 1.6 0.30 1.04 1.04 1008.4
20260509055716 -17 201 3.2 4.8 0.43 1.02 1.02 1008.3
20260509055212 -17 213 1.6 1.6 0.48 0.99 0.99 1008.5
20260509054709 -17 214 4.8 4.8 0.48 0.94 0.94 1008.8
20260509054206 -17 186 1.6 3.2 0.61 0.91 0.91 1008.7
20260509053705 -17 182 0.0 0.0 0.48 0.86 0.86 1009.1
20260509053201 -17 191 1.6 1.6 0.43 0.84 0.84 1009.0
20260509052659 -17 204 3.2 3.2 0.71 0.79 0.79 1009.0
20260509052156 -17 194 3.2 3.2 0.97 0.76 0.76 1009.0
20260509051654 -17 191 3.2 3.2 0.79 0.69 0.69 1009.0
20260509051151 -17 213 1.6 3.2 0.71 0.61 0.61 1008.9
20260509050648 -17 184 3.2 3.2 0.61 0.53 0.53 1008.9
20260509050144 -17 140 3.2 3.2 0.79 0.48 0.48 1009.0
20260509045642 -17 210 3.2 4.8 0.79 0.43 0.43 1008.9
20260509045139 -17 193 4.8 4.8 0.61 0.36 0.36 1009.1
20260509044636 -17 194 1.6 1.6 0.66 0.33 0.33 1009.0
20260509044133 -17 191 1.6 1.6 0.48 0.25 0.25 1008.9
20260509043630 -17 196 1.6 1.6 0.48 0.20 0.20 1008.8
20260509043125 -17 177 0.0 0.0 0.48 0.15 0.15 1008.8
20260509042622 -17 181 0.0 0.0 0.43 0.13 0.13 1008.7
20260509042118 -17 201 3.2 3.2 0.13 0.08 0.08 1008.7
20260509041615 -17 153 0.0 0.0 0.18 0.05 0.05 1008.5
20260509041113 -17 185 0.0 0.0 0.30 0.05 0.05 1008.6
20260509040611 -17 206 1.6 1.6 0.30 0.03 0.03 1008.8
20260509040108 -17 183 1.6 3.2 0.97 0.00 0.00 1008.9
20260509035604 -17 186 0.0 0.0 1.37 1.91 1.91 1008.8
20260509035100 -17 196 1.6 1.6 1.55 1.80 1.80 1009.4
20260509034559 -17 216 1.6 3.2 1.37 1.68 1.68 1009.1
20260509034055 -17 193 1.6 1.6 1.19 1.55 1.55 1009.1
20260509033553 -17 188 0.0 1.6 0.89 1.47 1.47 1009.2
20260509033049 -17 196 3.2 3.2 0.66 1.37 1.37 1009.2
20260509032547 -17 207 1.6 3.2 0.18 1.30 1.30 1009.1
20260509032044 -17 183 1.6 1.6 0.13 1.27 1.27 1008.8
20260509031542 -17 182 1.6 3.2 0.13 1.27 1.27 1009.1
20260509031039 -17 190 1.6 3.2 0.18 1.24 1.24 1009.3
20260509030537 -17 180 0.0 0.0 0.30 1.24 1.24 1009.0
20260509030033 -17 193 0.0 0.0 0.30 1.22 1.22 1009.0
20260509025529 -17 185 0.0 0.0 0.48 1.19 1.19 1009.4
20260509025025 -17 197 0.0 0.0 0.30 1.17 1.17 1009.3
20260509024520 -17 196 1.6 3.2 0.13 1.12 1.12 1009.5
20260509024018 -17 184 0.0 0.0 0.13 1.12 1.12 1009.3
20260509023515 -17 177 0.0 0.0 0.18 1.09 1.09 1009.2
20260509023012 -17 181 0.0 1.6 0.30 1.09 1.09 1009.3
20260509022509 -17 204 1.6 1.6 0.43 1.07 1.07 1009.3
20260509022006 -17 145 0.0 1.6 0.79 1.04 1.04 1009.6
20260509021503 -17 193 0.0 0.0 0.89 1.02 1.02 1009.6
20260509021000 -17 209 4.8 8.0 0.71 0.94 0.94 1009.4
20260509020458 -17 192 1.6 1.6 0.61 0.86 0.86 1009.4
20260509015955 -17 217 6.4 8.0 0.48 0.81 0.81 1009.5
20260509015454 -17 192 0.0 1.6 0.43 0.79 0.79 1009.4
20260509014950 -17 184 1.6 1.6 0.30 0.74 0.74 1009.3
20260509014447 -17 177 0.0 0.0 0.18 0.71 0.71 1009.3
20260509013943 -17 195 0.0 1.6 0.13 0.69 0.69 1009.4
20260509013440 -17 180 0.0 1.6 0.30 0.69 0.69 1009.3
20260509012936 -17 181 1.6 1.6 0.18 0.66 0.66 1009.4
20260509012433 -17 181 0.0 1.6 0.00 0.64 0.64 1009.3
20260509011930 -17 192 1.6 3.2 0.18 0.64 0.64 1009.4
20260509011427 -17 215 1.6 3.2 0.18 0.64 0.64 1009.2
20260509010925 -17 211 1.6 1.6 0.13 0.61 0.61 1009.2
20260509010422 -17 200 1.6 1.6 0.30 0.61 0.61 1009.2
20260509005919 -17 194 0.0 0.0 0.30 0.58 0.58 1009.2
20260509005417 -17 187 0.0 1.6 0.13 0.56 0.56 1009.2
20260509004917 -17 194 1.6 1.6 0.00 0.53 0.53 1009.2
20260509004414 -17 194 1.6 1.6 0.00 0.53 0.53 1008.9
20260509003912 -17 175 0.0 0.0 0.18 0.53 0.53 1008.8
20260509003409 -17 178 0.0 0.0 0.18 0.53 0.53 1008.9
20260509002906 -17 180 0.0 0.0 0.00 0.51 0.51 1009.1
20260509002404 -17 174 0.0 0.0 0.13 0.51 0.51 1009.0
20260509001901 -17 174 0.0 0.0 0.13 0.51 0.51 1008.9
20260509001357 -17 266 4.8 4.8 0.00 0.48 0.48 1009.2
20260509000854 -17 161 1.6 1.6 0.18 0.48 0.48 1009.0
20260509000352 -17 178 3.2 3.2 0.30 0.48 0.48 1009.1
20260508235848 -17 202 0.0 1.6 0.30 0.46 0.46 1009.1
20260508235345 -17 177 0.0 0.0 0.30 0.43 0.43 1009.3
20260508234842 -17 170 0.0 1.6 0.13 0.41 0.41 1009.1
20260508234338 -17 215 1.6 3.2 0.30 0.38 0.38 1008.8
20260508233837 -17 184 1.6 1.6 0.48 0.38 0.38 1008.9
20260508233336 -17 173 0.0 0.0 0.18 0.33 0.33 1009.2
20260508232832 -17 179 0.0 0.0 0.18 0.30 0.30 1009.2
20260508232329 -17 248 1.6 3.2 0.18 0.30 0.30 1009.2
20260508231828 -17 32 0.0 0.0 0.13 0.28 0.28 1009.2
20260508231324 -17 180 0.0 0.0 0.30 0.28 0.28 1009.3
20260508230820 -17 169 0.0 0.0 0.30 0.25 0.25 1009.3
20260508230316 -17 181 0.0 0.0 0.30 0.23 0.23 1009.3
20260508225815 -17 193 0.0 1.6 0.30 0.20 0.20 1009.4
20260508225310 -17 174 0.0 0.0 0.13 0.18 0.18 1009.4
20260508224809 -17 206 0.0 0.0 0.00 0.15 0.15 1009.4
20260508224306 -17 160 0.0 0.0 0.18 0.15 0.15 1009.0
20260508223803 -17 175 0.0 0.0 0.18 0.15 0.15 1008.9
20260508223301 -17 111 0.0 0.0 0.00 0.13 0.13 1009.2
20260508222758 -17 213 0.0 0.0 0.13 0.13 0.13 1009.3
20260508222255 -17 177 0.0 0.0 0.13 0.13 0.13 1009.5
20260508221752 -17 171 0.0 0.0 0.13 0.13 0.13 1009.2
20260508221247 -17 171 0.0 1.6 0.18 0.10 0.10 1009.3
20260508220743 -17 183 1.6 3.2 0.30 0.10 0.10 1009.4
20260508220240 -17 174 0.0 0.0 0.30 0.08 0.08 1009.2
20260508215737 -17 178 0.0 0.0 0.18 0.05 0.05 1009.0
20260508215233 -17 174 0.0 0.0 0.00 0.03 0.03 1009.0
20260508214731 -17 186 0.0 0.0 0.00 0.03 0.03 1008.8
20260508214228 -17 180 0.0 0.0 0.00 0.03 0.03 1008.7
20260508213724 -17 177 0.0 0.0 0.00 0.03 0.03 1008.8
20260508213221 -17 170 0.0 0.0 0.00 0.03 0.03 1008.7
20260508212717 -17 175 0.0 0.0 0.00 0.03 0.03 1008.6
20260508212214 -17 177 0.0 0.0 0.18 0.03 0.03 1008.6
20260508211709 -17 172 0.0 0.0 0.18 0.03 0.03 1008.6
20260508211205 -17 174 0.0 0.0 0.00 0.00 0.00 1008.7
20260508210703 -17 173 1.6 3.2 0.00 0.00 0.00 1008.8
20260508210200 -17 193 1.6 3.2 0.00 0.00 0.00 1008.7
20260508205657 -17 195 1.6 1.6 0.00 0.00 0.00 1008.6
20260508205153 -17 195 4.8 8.0 0.00 0.00 0.00 1008.6
20260508204649 -17 221 4.8 8.0 0.00 0.00 0.00 1008.6
20260508204146 -17 189 4.8 8.0 0.00 0.00 0.00 1008.6
20260508203642 -17 219 3.2 4.8 0.00 0.00 0.00 1008.7
20260508203138 -17 198 4.8 4.8 0.00 0.00 0.00 1008.6
20260508202634 -17 237 6.4 8.0 0.00 0.00 0.00 1008.8
20260508202132 -17 210 4.8 4.8 0.00 0.00 0.00 1008.6
20260508201628 -17 161 4.8 8.0 0.00 0.00 0.00 1008.9
20260508201125 -17 234 4.8 8.0 0.00 0.00 0.00 1008.8
20260508200622 -17 204 4.8 4.8 0.00 0.00 0.00 1009.0
20260508200118 -17 208 3.2 3.2 0.00 0.00 0.00 1009.2
20260508195614 -17 206 1.6 3.2 0.00 0.00 0.00 1009.1
20260508195111 -17 179 0.0 0.0 0.00 0.00 0.00 1009.2
20260508194608 -17 205 3.2 3.2 0.00 0.00 0.00 1009.3
20260508194105 -17 182 4.8 8.0 0.00 0.00 0.00 1009.3
20260508193602 -17 186 1.6 3.2 0.00 0.00 0.00 1009.6
20260508193058 -17 239 6.4 8.0 0.00 0.00 0.00 1009.2
20260508192555 -17 193 3.2 3.2 0.00 0.00 0.00 1009.6
20260508192052 -17 181 1.6 3.2 0.00 0.00 0.00 1009.4
20260508191549 -17 214 6.4 8.0 0.00 0.00 0.00 1009.7
20260508191045 -17 218 8.0 9.7 0.00 0.00 0.00 1009.7
20260508190543 -17 229 4.8 4.8 0.00 0.00 0.00 1009.8
20260508190039 -17 197 1.6 1.6 0.00 0.00 0.00 1009.8
20260508185536 -17 212 8.0 12.9 0.00 0.00 0.00 1010.0
20260508185034 -17 199 3.2 3.2 0.00 0.00 0.00 1010.1
20260508184531 -17 247 6.4 8.0 0.00 0.00 0.00 1010.2
20260508184028 -17 222 4.8 4.8 0.00 0.00 0.00 1010.3
20260508183525 -17 209 3.2 3.2 0.00 0.00 0.00 1010.3
20260508183021 -17 204 4.8 4.8 0.00 0.00 0.00 1010.2
20260508182517 -17 211 4.8 4.8 0.00 0.00 0.00 1010.2
20260508182013 -17 231 6.4 8.0 0.00 0.00 0.00 1010.3
20260508181509 -17 212 8.0 9.7 0.00 0.00 0.00 1010.6
20260508181007 -17 162 8.0 11.3 0.00 0.00 0.00 1010.6
20260508180503 -17 200 6.4 9.7 0.00 0.00 0.00 1010.4
20260508175959 -17 207 8.0 11.3 0.00 0.00 0.00 1010.5
20260508175456 -17 219 8.0 9.7 0.00 0.00 0.00 1010.8
20260508174954 -17 197 11.3 14.5 0.00 0.00 0.00 1010.7
20260508174451 -17 222 4.8 4.8 0.00 0.00 0.00 1010.9
20260508173948 -17 212 8.0 11.3 0.00 0.00 0.00 1010.7
20260508173445 -17 220 4.8 8.0 0.00 0.00 0.00 1010.7
20260508172941 -17 269 8.0 9.7 0.00 0.00 0.00 1010.9
20260508172438 -17 191 9.7 11.3 0.00 0.00 0.00 1010.9
20260508171934 -17 194 4.8 9.7 0.00 0.00 0.00 1010.9
20260508171431 -17 241 11.3 11.3 0.00 0.00 0.00 1011.0
20260508170928 -17 169 12.9 20.9 0.00 0.00 0.00 1011.3
20260508170425 -17 254 9.7 11.3 0.00 0.00 0.00 1011.3
20260508165921 -17 185 8.0 9.7 0.00 0.00 0.00 1011.3
20260508165420 -17 233 11.3 14.5 0.00 0.00 0.00 1011.2
20260508164915 -17 225 6.4 8.0 0.00 0.00 0.00 1011.7
20260508164413 -17 226 4.8 8.0 0.00 0.00 0.00 1011.7
20260508163910 -17 195 4.8 8.0 0.00 0.00 0.00 1011.6
20260508163408 -17 194 6.4 9.7 0.00 0.00 0.00 1012.0
20260508162902 -17 263 6.4 11.3 0.00 0.00 0.00 1011.9
20260508162401 -17 236 11.3 14.5 0.00 0.00 0.00 1011.9
20260508161857 -17 257 6.4 8.0 0.00 0.00 0.00 1012.2
20260508161355 -17 235 6.4 9.7 0.00 0.00 0.00 1012.0
20260508160852 -17 221 4.8 11.3 0.00 0.00 0.00 1012.2
20260508160350 -17 229 3.2 4.8 0.00 0.00 0.00 1012.2
20260508155846 -17 254 6.4 8.0 0.00 0.00 0.00 1012.3
20260508155344 -17 236 6.4 8.0 0.00 0.00 0.00 1012.2
20260508154840 -17 263 6.4 8.0 0.00 0.00 0.00 1012.2
20260508154338 -17 239 12.9 16.1 0.00 0.00 0.00 1012.4
20260508153834 -17 178 6.4 8.0 0.00 0.00 0.00 1012.2
20260508153332 -17 246 8.0 11.3 0.00 0.00 0.00 1012.2
20260508152827 -17 253 6.4 8.0 0.00 0.00 0.00 1012.4
20260508152324 -17 207 4.8 8.0 0.00 0.00 0.00 1012.3
20260508151820 -17 215 4.8 4.8 0.00 0.00 0.00 1012.3
20260508151318 -17 166 8.0 11.3 0.00 0.00 0.00 1012.5
20260508150814 -17 156 12.9 16.1 0.00 0.00 0.00 1012.3
20260508150311 -17 238 8.0 16.1 0.00 0.00 0.00 1012.3
20260508145807 -17 188 9.7 12.9 0.00 0.00 0.00 1012.5
20260508145306 -17 197 4.8 4.8 0.00 0.00 0.00 1012.5
20260508144800 -17 227 11.3 14.5 0.00 0.00 0.00 1012.6
20260508144258 -17 200 11.3 16.1 0.00 0.00 0.00 1012.7
20260508143755 -17 228 1.6 3.2 0.00 0.00 0.00 1012.7
20260508143252 -17 204 4.8 4.8 0.00 0.00 0.00 1012.8
20260508142748 -17 238 3.2 3.2 0.00 0.00 0.00 1012.8
20260508142246 -17 227 6.4 8.0 0.00 0.00 0.00 1012.8
20260508141742 -17 326 8.0 9.7 0.00 0.00 0.00 1012.7
20260508141239 -17 250 8.0 9.7 0.00 0.00 0.00 1012.8
20260508140736 -17 233 9.7 12.9 0.00 0.00 0.00 1012.9
20260508140233 -17 201 8.0 8.0 0.00 0.00 0.00 1012.8
20260508135729 -17 240 8.0 16.1 0.00 0.00 0.00 1013.1
20260508135225 -17 203 1.6 3.2 0.00 0.00 0.00 1012.9
20260508134721 -17 232 8.0 11.3 0.00 0.00 0.00 1012.9
20260508134219 -17 175 4.8 8.0 0.00 0.00 0.00 1012.8
20260508133715 -17 206 4.8 8.0 0.00 0.00 0.00 1013.1
20260508133213 -17 235 6.4 9.7 0.00 0.00 0.00 1013.1
20260508132711 -17 161 3.2 3.2 0.00 0.00 0.00 1013.2
20260508132208 -17 206 8.0 11.3 0.00 0.00 0.00 1013.2
20260508131703 -17 227 4.8 8.0 0.00 0.00 0.00 1013.2
20260508131200 -17 233 4.8 4.8 0.00 0.00 0.00 1013.1
20260508130656 -17 237 8.0 9.7 0.00 0.00 0.00 1013.0
20260508130154 -17 186 11.3 14.5 0.00 0.00 0.00 1013.0
20260508125649 -17 190 3.2 3.2 0.00 0.00 0.00 1012.9
20260508125146 -17 237 8.0 9.7 0.00 0.00 0.00 1013.2
20260508124644 -17 210 4.8 8.0 0.00 0.00 0.00 1013.0
20260508124141 -17 183 6.4 9.7 0.00 0.00 0.00 1013.2
20260508123639 -17 197 4.8 4.8 0.00 0.00 0.00 1012.9
20260508123137 -17 167 6.4 11.3 0.00 0.00 0.00 1013.0
20260508122633 -17 213 4.8 4.8 0.00 0.00 0.00 1013.1
20260508122130 -17 268 8.0 9.7 0.00 0.00 0.00 1013.0
20260508121628 -17 191 8.0 11.3 0.00 0.00 0.00 1012.8
20260508121126 -17 213 6.4 8.0 0.00 0.00 0.00 1012.9
20260508120623 -17 220 3.2 3.2 0.00 0.00 0.00 1013.1
20260508120121 -17 263 4.8 8.0 0.00 0.00 0.00 1012.9
20260508115619 -17 205 1.6 3.2 0.00 0.00 0.00 1013.1
20260508115115 -17 181 4.8 4.8 0.00 0.00 0.00 1012.7
20260508114613 -17 181 3.2 3.2 0.00 0.00 0.00 1012.7
20260508114108 -17 201 4.8 8.0 0.00 0.00 0.00 1012.6
20260508113606 -17 227 8.0 8.0 0.00 0.00 0.00 1012.6
20260508113104 -17 219 3.2 4.8 0.00 0.00 0.00 1012.6
20260508112559 -17 195 4.8 4.8 0.00 0.00 0.00 1012.6
20260508112056 -17 179 1.6 3.2 0.00 0.00 0.00 1012.8
20260508111553 -17 206 1.6 3.2 0.00 0.00 0.00 1012.6
20260508111050 -17 209 4.8 4.8 0.00 0.00 0.00 1012.6
20260508110548 -17 179 1.6 1.6 0.00 0.00 0.00 1012.5
20260508110044 -17 198 1.6 1.6 0.00 0.00 0.00 1012.5
20260508105539 -17 223 3.2 3.2 0.00 0.00 0.00 1012.7
20260508105037 -17 195 1.6 1.6 0.00 0.00 0.00 1012.4
20260508104534 -17 223 4.8 4.8 0.00 0.00 0.00 1012.6
20260508104030 -17 218 3.2 3.2 0.00 0.00 0.00 1012.5
20260508103527 -17 196 1.6 3.2 0.00 0.00 0.00 1012.5
20260508103025 -17 179 1.6 1.6 0.00 0.00 0.00 1012.4
20260508102523 -17 197 3.2 3.2 0.00 0.00 0.00 1012.5
20260508102020 -17 207 3.2 4.8 0.00 0.00 0.00 1012.4
20260508101517 -17 206 3.2 3.2 0.00 0.00 0.00 1012.5
20260508101014 -17 202 3.2 3.2 0.00 0.00 0.00 1012.2
20260508100513 -17 173 3.2 3.2 0.00 0.00 0.00 1012.2
20260508100009 -17 215 4.8 4.8 0.00 0.00 0.00 1012.7
20260508095506 -17 196 3.2 3.2 0.00 0.00 0.00 1012.4
20260508095003 -17 210 3.2 3.2 0.00 0.00 0.00 1012.5
20260508094500 -17 227 4.8 4.8 0.00 0.00 0.00 1012.4
20260508093956 -17 187 1.6 1.6 0.00 0.00 0.00 1012.5
20260508093454 -17 198 1.6 3.2 0.00 0.00 0.00 1012.6
20260508092952 -17 179 0.0 0.0 0.00 0.00 0.00 1012.5
20260508092449 -17 175 0.0 0.0 0.00 0.00 0.00 1012.6
20260508091948 -17 183 0.0 1.6 0.00 0.00 0.00 1012.5
20260508091444 -17 173 1.6 1.6 0.00 0.00 0.00 1012.5
20260508090941 -17 179 0.0 1.6 0.00 0.00 0.00 1012.5